sat.trackr.live / text

‹ back to catalog

STARLINK-35398

NORAD 66017 · 2025-232N

PAYLOAD ACTIVE UNKNOWN

§ Identity

Operator
Country
US
Launch date
2025-10-16
Launch site
AFETR
Launch vehicle
Mass (kg)
RCS (m²)

Purposes: comms

External: N2YO · Heavens-Above · Gunter

§ Orbital elements

Epoch: 2026-05-25T04:00:03.998880Z

Period
93.85 min
Inclination
53.1598°
Eccentricity
0.0001695
Mean motion
15.34347115 rev/d
Perigee alt
461.7 km
Apogee alt
464.0 km
Semi-major
6,841.0 km
B*
6.9356e-4
RAAN
108.7363°
Arg perigee
93.3180°
Mean anomaly
270.8492°
Rev number
580

§ Raw data

STARLINK-353981 66017U 25232N   26145.16671295  .00023090  00000+0  69356-3 0  99942 66017  53.1598 108.7363 0001695  93.3180 270.8492 15.34347115  5805

JSON: /api/v1/satellites/66017 · /tle

For live sub-satellite position, see the globe view (requires WebGL).

§ Visibility from observer

Set your observer location to see the next 7 days of passes ≥ 10°. The values pass through the URL so the page stays shareable.

No JS? Fill the form by hand. The geolocation button needs JavaScript.